Weather History for Point Lay, AK

Change the Weather History Date:

Tuesday, October 2, 2012

  Actual Average Record
Temperature  
Mean Temperature 30 °F -  
Max Temperature 36 °F 31 °F 39 °F (1998)
Min Temperature 23 °F 25 °F 17 °F (2013)
Degree Days  
Heating Degree Days 36    
Moisture  
Dew Point 29 °F    
Average Humidity 86    
Maximum Humidity 93    
Minimum Humidity 79    
Precipitation  
Precipitation 0.00 in - - ()
Sea Level Pressure  
Sea Level Pressure 29.74 in    
Wind  
Wind Speed 3 mph (SE)    
Max Wind Speed 14 mph    
Max Gust Speed -    
Visibility 10 miles    
Events      
Averages and records for this station are not official NWS values.
T = Trace of Precipitation, MM = Missing Value Source: NWS Daily Summary

Daily Weather History Graph

Daily Weather History Graph

Search for Another Location

Airport:

Trip Planner

Search our weather history database for the weather conditions in past years. The results will help you decide how hot, cold, wet, or windy it might be!

Date:

Astronomy

Oct. 02, 2012 Rise Set
Actual Time 9:14 AM AKDT 8:06 PM AKDT
Civil Twilight 8:14 AM AKDT 9:05 PM AKDT
Nautical Twilight 7:02 AM AKDT 10:16 PM AKDT
Astronomical Twilight 5:39 AM AKDT 11:37 PM AKDT
Moon 7:05 PM AKDT (10/2) 2:08 PM AKDT (10/2)
Length of Visible Light 12h 51m
Length of Day
10h 51m
Waning Gibbous, 93% of the Moon is Illuminated
Oct 2
Waning Gibbous
Oct 7
Last Quarter
Oct 15
New
Oct 21
First Quarter
Oct 29
Full

Hourly Weather History & Observations

Time (AKDT) Temp. Windchill Dew Point Humidity Pressure Visibility Wind Dir Wind Speed Gust Speed Precip Events Conditions
12:56 AM 24.1 °F - 19.0 °F 81% 29.85 in 10.0 mi Calm Calm - N/A   Overcast
1:56 AM 23.0 °F - 18.1 °F 82% 29.84 in 10.0 mi Calm Calm - N/A   Clear
2:56 AM 27.1 °F - 22.1 °F 81% 29.82 in 10.0 mi Calm Calm - N/A   Partly Cloudy
3:56 AM 28.0 °F - 24.1 °F 85% 29.81 in 10.0 mi Calm Calm - N/A   Clear
4:46 AM 32.0 °F - 30.2 °F 93% 29.78 in 8.0 mi Calm Calm - 0.00 in   Mostly Cloudy
4:56 AM 32.0 °F - 30.0 °F 92% 29.79 in 10.0 mi Calm Calm - 0.00 in   Mostly Cloudy
5:40 AM 33.8 °F - 30.2 °F 87% 29.77 in 10.0 mi Calm Calm - 0.00 in   Scattered Clouds
5:56 AM 32.9 °F - 30.0 °F 89% 29.77 in 10.0 mi Calm Calm - 0.00 in   Scattered Clouds
6:56 AM 32.9 °F - 29.1 °F 86% 29.76 in 10.0 mi Calm Calm - N/A   Clear
7:56 AM 32.9 °F - 29.1 °F 86% 29.74 in 10.0 mi Calm Calm - 0.00 in   Clear
8:56 AM 34.0 °F - 29.1 °F 82% 29.73 in 10.0 mi Calm Calm - 0.00 in   Mostly Cloudy
9:56 AM 34.0 °F - 30.0 °F 85% 29.72 in 10.0 mi Calm Calm - N/A   Overcast
10:56 AM 34.0 °F - 30.0 °F 85% 29.72 in 10.0 mi Calm Calm - N/A   Overcast
11:56 AM 34.9 °F 26.6 °F 30.0 °F 82% 29.71 in 10.0 mi SE 11.5 mph - N/A   Mostly Cloudy
12:56 PM 36.0 °F 28.0 °F 30.0 °F 79% 29.72 in 10.0 mi SE 11.5 mph - N/A   Partly Cloudy
1:56 PM 34.9 °F 26.2 °F 30.0 °F 82% 29.72 in 10.0 mi SE 12.7 mph - N/A   Scattered Clouds
2:56 PM 36.0 °F 28.0 °F 30.0 °F 79% 29.71 in 10.0 mi SE 11.5 mph - N/A   Overcast
3:56 PM 34.9 °F 26.6 °F 31.1 °F 86% 29.71 in 10.0 mi SE 11.5 mph - 0.00 in   Overcast
4:56 PM 36.0 °F 28.5 °F 31.1 °F 82% 29.71 in 10.0 mi ESE 10.4 mph - 0.00 in   Overcast
5:56 PM 36.9 °F 28.2 °F 32.0 °F 83% 29.70 in 10.0 mi SE 13.8 mph - 0.00 in   Mostly Cloudy
6:56 PM 34.9 °F 27.7 °F 32.0 °F 89% 29.70 in 10.0 mi ESE 9.2 mph - 0.00 in   Scattered Clouds
7:56 PM 34.9 °F 28.3 °F 32.0 °F 89% 29.70 in 10.0 mi SE 8.1 mph - 0.00 in   Clear
8:56 PM 34.0 °F 26.6 °F 31.1 °F 89% 29.70 in 10.0 mi SE 9.2 mph - 0.00 in   Scattered Clouds
9:56 PM 34.0 °F 25.5 °F 31.1 °F 89% 29.70 in 10.0 mi SE 11.5 mph - 0.00 in   Mostly Cloudy
10:56 PM 34.0 °F 26.0 °F 31.1 °F 89% 29.71 in 10.0 mi SE 10.4 mph - 0.00 in   Overcast
11:56 PM 32.9 °F 25.9 °F 31.1 °F 93% 29.71 in 10.0 mi SSE 8.1 mph - 0.00 in   Overcast